STARLINK-32854, 62816

Orbit data source: Space-Track

STARLINK-32854, 62816 is a payload satellite owned by SpaceX/Seattle (US) in LEO that was launched on Fri, 24 Jan 2025 UTC via an FALCON 9 launch vehicle from the Air Force Western Test Range (AFWTR). Payload-class satellites include a variety of spacecraft equipped with specific instruments for various scientific and technological missions. These include communications satellites like Starlink; space stations such as the ISS; scientific satellites like the Hubble; Earth observation satellites from companies like Planet Labs, Umbra, and HawkEye 360; GPS; miniature CubeSats for education and research; and military/defense satellites.

Loading next visibility...
Identifier
62816, 2025-018L
Orbit
LEO
Last TLE update
18 hours ago
Origin
Manufacturer
SpaceX/Seattle
Mission
Operational Commercial Communications
Bus & Motor
STARLINK V2M, Unknown motor
Mass
730 kg wet, ~700 kg dry
Launch date (UTC)
2025-01-24 (6 months ago)
Launch vehicle
FALCON 9
Launch site
Air Force Western Test Range (AFWTR)
Object type
Payload
Rocket body
Debris
Shape & HBR
Box + 2 Pan, 29 m
Radar Cross Section
33.884 m², Large (>1 m²)

Expand to show TLE details & history

TLE from 18 hours ago
0 STARLINK-32854
1 62816U 25018L   25193.69495166  .00024270  00000-0  82831-3 0  9995
2 62816  53.1589 344.3890 0001348  97.3424 262.7730 15.30221676 26415
Epoch: 2025-07-12T16:40Z
TLE epoch observation values (Epoch: 2025-07-12T16:40:43.823Z)
Latitude
-0.00002°
Longitude
163.37755°
Altitude
476.166 km
Speed
7.629 km/s
True Right ascension
22h 57m 33s
True Declination
0° 00' 00"
Sunlit
Object was in full shadow at epoch
Visualization orbit readout
Latitude
-39.82845°
Longitude
18.26177°
Altitude
488.767 km
Speed
7.62 km/s
Apparent Right ascension
12h 21m 42s
Apparent Declination
-40° 35' 17"
Sunlit
Object is in daylight
Visualization observer readout
Local Sidereal Time
23:21:55
Azimuth
261.803° W
Elevation
-78.586°
Doppler factor
1
Orbital elements
Apogee altitude
476.331 km
Perigee altitude
474.483 km
Semi-major axis
6,853.544 km
Eccentricity
0.00013
Inclination
53.1589°
RAAN
344.389°
Arg. of periapsis
97.3424°
True anomaly
Unknown
Mean anomaly
262.773°
Eccentric anomaly
Unknown
Mean motion
3.82534 °/min
Orbital period
94.11 mins
BSTAR
0.00082831
Loading maneuver chart data...
Loading SW <> Apogee altitude chart data...
Loading historical data...
Loading historical data...
Loading historical data...
Loading historical data...
Loading historical data...
Loading historical data...
Loading historical data...

STARLINK-32854 Visibility forecast

Observer location: undefined°, undefined°

Span
Click to sort rows by Start time (UTC) header in descending order
Start Az.
Max El. time (UTC)
Max El. Az.
Max El.
End time (UTC)
End Az.
4 mins2025-07-13 11:39:04.675Z161.686° S2025-07-13 11:41:04.675Z121.185° SE17.569°2025-07-13 11:43:04.675Z86.106° E
5 mins2025-07-13 13:16:04.675Z254.595° W2025-07-13 13:18:04.675Z305.441° NW36.932°2025-07-13 13:21:04.675Z37.044° NE
5 mins2025-07-13 18:13:04.675Z341.403° N2025-07-13 18:15:04.675Z22.209° NNE20.985°2025-07-13 18:18:04.675Z78.925° E
5 mins2025-07-13 19:51:04.675Z297.802° NW2025-07-13 19:53:04.675Z247.952° W39.825°2025-07-13 19:56:04.675Z147.151° SSE
|